Regional Weather Roundup
Issued by NWS Wakefield, VA

Home | Current Version | Previous Version | Text Only | Print | Product List | Glossary Off
Versions: 1 2 3 4 5 6 7 8 9 10 11 12 13 14 15 16 17 18 19 20 21 22 23 24 25 26 27

000
ASUS41 KAKQ 231815
RWRAKQ

REGIONAL WEATHER ROUNDUP
NATIONAL WEATHER SERVICE WAKEFIELD VA
100 PM EST MON JAN 23 2017

Note: "fair" indicates few or no clouds below 12,000 feet with no
significant weather and/or obstructions to visibility. * = Denotes
station may not report precipitation (e.g., rain,snow,etc.),
thunder or fog.

VAZ042-051-052>054-056-231900-
NORTHERN VIRGINIA

CITY           SKY/WX    TMP DP  RH WIND       PRES   REMARKS
WASH NATIONAL  RAIN      43  41  93 NE25G31   29.40F FOG
DULLES         RAIN      41  37  86 NE17G28   29.44S FOG
FORT BELVOIR   LGT RAIN  43  39  87 NE8       29.41R FOG
QUANTICO       LGT RAIN  45  43  93 NE16G26   29.43R FOG
FREDERICKSBRG* RAIN      46  46 100 NE15G23   29.39F
STAFFORD*      RAIN      43  43 100 N12       29.44F
WARRENTON      LGT RAIN  43  40  87 N15G21    29.44S
CULPEPER*      RAIN      43  42  96 N13G18    29.45F
MANASSAS*      HVY RAIN N/A N/A N/A NE12G23   29.48  VSB 1
LEESBURG*      LGT RAIN  43  43 100 N10G23    29.48S
WINCHESTER     HVY RAIN  37  36  93 NE6       29.47R
FRONT ROYAL*   CLOUDY    37  37 100 N12G20    29.47S
LURAY*         RAIN      41  41 100 N14G20      N/A
$$

VAZ048-049-060>072-079>083-231900-
CENTRAL AND SOUTH CENTRAL VIRGINIA

CITY           SKY/WX    TMP DP  RH WIND       PRES   REMARKS
RICHMOND       LGT RAIN  52  52 100 NE13      29.29R FOG
CHESTERFIELD*  CLOUDY    54  37  54 NE13      29.30S
PETERSBURG*    LGT RAIN  54  54 100 N7        29.26F
HANOVER        LGT RAIN  49  46  90 VRB7      29.34R
TAPPAHANNOCK*  RAIN      49  49 100 NE9G17    29.33R
QUINTON*       CLOUDY    51  51 100 NE10G20   29.28F FOG
CHARLOTTSVILLE RAIN      45  42  89 NE21G28   29.41S FOG
GORDONSVILLE*  CLOUDY    44  43  97 N6        29.43R FOG
ORANGE*        HVY RAIN  45  45 100 NW8G17    29.44R
LOUISA*        RAIN      48  46  93 N9        29.40R
BUMPASS*       CLOUDY    45  45 100 NE3       29.39R
FARMVILLE*     CLOUDY    49  48  95 N15G30    29.30R FOG
CREWE*         CLOUDY    51  51 100 N6        29.28R
FORT PICKETT*  CLOUDY   N/A N/A N/A N6        29.27S
CHASE CITY*    CLOUDY    53  51  94 N7        29.28S
CLARKSVILLE*   MOCLDY    55  55 100 CALM      29.26F
SOUTH HILL*    CLOUDY    57  53  86 W3        29.31F
LAWRENCEVILLE* MOCLDY    59  53  80 W6        29.25F
EMPORIA*       PTSUNNY   59  52  77 SW3       29.26F
$$

VAZ088>098-231900-
SOUTHEAST VIRGINIA

CITY           SKY/WX    TMP DP  RH WIND       PRES   REMARKS
NORFOLK        PTSUNNY   65  56  72 SW15      29.21F
VIRGINIA BEACH PTSUNNY   65  55  70 SW14      29.21F
NORFOLK NAVAL  PTSUNNY   60  55  83 NW6       29.23F
WEST POINT*    CLOUDY    52  51  97 NE13G23   29.29F
SALUDA*        CLOUDY    51  51 100 NE10G21   29.27F
NEWPORT NEWS   CLOUDY    55  53  93 N8        29.24F
LANGLEY AFB    CLOUDY    56  56  99 N5        29.22F
FORT EUSTIS    CLOUDY    57  54  88 VRB7      29.21F
WILLIAMSBURG*  CLOUDY    55  55 100 NE3       29.25F
HR EXEC AP*    MOCLDY    64  55  72 W9G18     29.21F
FRANKLIN*      MOSUNNY   62  55  76 S6        29.24F
US460-WAKEFLD  CLOUDY    59  57  93 W6        29.24F
$$

VAZ020-022-025-037-045-231900-
WEST CENTRAL AND SOUTHWEST VIRGINIA

CITY           SKY/WX    TMP DP  RH WIND       PRES   REMARKS
STAUNTON*      RAIN      41  39  94 N9G16     29.44S
WAYNESBORO*    CLOUDY    41  40  97 N12       29.41S
HOT SPRINGS VA FOG       30  30 100 E20G29    29.29F VSB 1/4 WCI  18
LYNCHBURG      LGT RAIN  46  44  93 N17G31    29.32R FOG
DANVILLE       LGT RAIN  52  52 100 NE12      29.29R FOG
SOUTH BOSTON*  CLOUDY    52  51  96 N8        29.28S
MARTINSVILLE   DRIZZLE   49  47  95 N7        29.32S
ROANOKE        LGT RAIN  47  45  93 N9        29.35R
BLACKSBURG     DRIZZLE   46  44  95 NE9G16    29.35S
DUBLIN*        LGT RAIN  47  47  99 NE10G16   29.33F
MARION*        LGT RAIN  48  46  91 CALM      29.34S
HILLSVILLE*    LGT RAIN  47  46  99 N5G16     29.28S
RICHLANDS*     LGT RAIN  44  44 100 NW6       29.33F
WISE*          LGT RAIN  46  46 100 N3        29.36F
ABINGDON*      RAIN      49  45  86 CALM      29.33F
$$

MDZ021>025-VAZ099-100-231900-
SOUTHERN MARYLAND AND THE DELMARVA PENINSULA

CITY           SKY/WX    TMP DP  RH WIND       PRES   REMARKS
PATUXENT RIVER HVY RAIN  46  45  96 E16G24    29.37R FOG
BAY BRIDGE APT LGT RAIN  43  41  93 NE16G36   29.41F FOG
LEONARDTOWN    CLOUDY    45  43  93 NE7       29.42R
DOVER          MIX PCPN  42  42 100 NE15G30   29.46F
GEORGETOWN     LGT RAIN  45  50 100 NE32G46   29.38F
EASTON         RAIN      45  41  87 E31G43    29.42F
CAMBRIDGE      CLOUDY    43  41  93 E28G49    29.33F
SALISBURY      RAIN      47  46  97 NE28G45   29.34F FOG
OCEAN CITY     RAIN      48  48 100 E18G35    29.33S FOG
WALLOPS ISLAND LGT RAIN  51  51 100 E24G39    29.31S
ACCOMACK*      DRIZZLE   54  52  93 E18G29    29.27F
$$

NCZ012>017-030>032-231900-
NORTH CENTRAL AND EASTERN NORTH CAROLINA

CITY           SKY/WX    TMP DP  RH WIND       PRES   REMARKS
ROANOKE RAPIDS FAIR      61  50  67 SW13G18   29.25F
RALEIGH        CLOUDY    59  46  62 SW9       29.27F
ELIZABETH CITY MOSUNNY   65  53  65 SW14G21   29.25F
AHOSKIE*         N/A     64  51  62 CALM      29.24F
EDENTON*       MOSUNNY   65  51  60 SW9       29.27F
CURRITUCK*     MOSUNNY   64  53  69 SW13G18   29.24S
KILL DEVIL HLS NOT AVBL
MANTEO         MOSUNNY   60  51  71 W7        29.26S
CAPE HATTERAS  MOSUNNY   62  51  67 SW10      29.27F HAZE
TARBORO*       NOT AVBL
GOLDSBORO      MOSUNNY   65  49  54 W15       29.22F
WASHINGTON     PTSUNNY   65  48  54 W7          N/A
GREENVILLE     SUNNY     64  46  52 W7        29.29F
NEW BERN       SUNNY     65  47  52 CALM      29.26F
WILMINGTON     MOSUNNY   64  50  60 SW14G20   29.22F
$$

VAZ048-231900-
ELSEWHERE

CITY           SKY/WX    TMP DP  RH WIND       PRES   REMARKS
HARRISBURG PA  LGT RAIN  39  35  86 E10G22    29.57F
BALTIMORE      RAIN      41  40  96 NE24G33   29.45F FOG
ANNAPOLIS      LGT RAIN  44  40  85 NE18G31   29.43F FOG
ANDREWS AFB    RAIN      43  41  93 E22G38    29.41R FOG
PHILADELPHIA   LGT RAIN  39  36  89 E26G41    29.59F FOG
HENDERSON NC   CLOUDY    57  47  69 SW8       29.28F
GREENSBORO     PTSUNNY   53  46  77 SW9       29.27F
ROCKY MOUNT    MOSUNNY   61  49  64 W9        29.25F
$$

VAZ100-231900-
MARINE

STATION/POSITION TIME  TEMP    WIND        PRES    WAVE   SWELL
                       AIR SEA DIR/SP/G            HT/PER HT/PER
                 (UTC) (F)     (DEG/KT/KT) (MB)    (FT/S) (FT/S)
CAPE MAY NJ      1748   44 43   50/ 14/ 27  994.8F
LEWES DE         1748           70/ 37/ 44  995.2F
OCEAN-CITY-INLET 1748           80/ 17/ 30  993.5F
WACHAPREAGUE VA  1748   53 49   70/ 26/ 31  990.9F
THOMAS POINT MD  1800   43 40   50/ 29/ 35   N/A
GOOSES REEF MD   1750   44      90/ 25/ 33  994.8F
COVE POINT MD    1748   45      80/ 26/ 33  994.2R
SOLOMONS ISLAND  1748           40/ 17/ 26   N/A
BISHOPS HEAD MD  1748   47 45   70/ 22/ 29  993.7R
PINEY POINT MD   1748           70/ 12/ 16   N/A
POTOMAC MD       1750   47     350/  4/ 12  992.9R
CAMBRIDGE MD     1748   45 43   50/ 32/ 41  991.8F
LEWISETTA VA     1748   47 44   60/ 11/ 19  993.4R
RAPPAHANNOCK LGT 1748           70/ 21/ 24  990.9S
STINGRAY PT      1750   51      80/ 17/ 33  991.6S
YORK RVR RNG VA  1748   51      60/ 13/ 14  989.2F
YORKTOWN VA      1748   52 44   10/  5/  6  989.8F
JAMESTOWN VA     1750   54      20/  6/ 10   N/A
DOMINION TERM VA 1748   55     250/  6/  8  989.6F
CHES BAY BRIDGE  1748   52 46   50/  4/  5  989.0F
CAPE HENRY VA    1748   56     340/  3/  5   N/A
WILLOUBY STN VA  1748   54      10/  7/  8  990.3F
S CRANEY ISL VA  1748   54     350/  6/  8  989.3F
CAPE HENRY BUOY  1742      48                N/A     9/ 9   3/11
OFFSHORE WE BUOY 1751      48                N/A    10/11   5/11
64NM E OF VA BCH 1750   57 56  220/ 17/ 23  990.4F  10/11   8/11
DUCK PIER NC     1748   57 46  220/  7/ 10  989.9F
44100 DUCK FRF   1735      49                N/A     8/ 8   3/13
44056 DUCK FRF   1730      47                N/A     6/ 6   2/11
OREGON INLET NC  1736   52 51  180/ 10/ 12  990.9F
HATTERAS NC      1748          230/  9/ 12  990.9F
DIAMOND SHLS NC  1750   64 76  250/ 14/ 19  991.4F   8/ 7   7/ 7
CAPE LOOKOUT NC  1700   59     220/  5/  6  991.7F
$$




USA.gov is the U.S. government's official web portal to all federal, state and local government web resources and services.